Location: Proctor
(47.8934°N, 114.3048°W)
Time: 05:34:51
(UTC+00:00)

Envisat - Pass Details

Date: 25 May 2024
Orbit: 762 x 764 km, 98.3° (Epoch: 13 June)

Event Time Altitude Azimuth Distance (km) Brightness Sun altitude
Rises 10:16:49 0° 21° (NNE) 3,238 7.8 -12.0°
Reaches altitude 10° 10:19:21 10° 31° (NNE) 2,307 7.0 -11.7°
Maximum altitude 10:23:58 34° 96° (E) 1,236 4.4 -11.2°
Drops below altitude 10° 10:28:32 10° 161° (SSE) 2,291 5.2 -10.7°
Sets 10:31:01 0° 170° (S) 3,212 5.8 -10.5°
